Location: Matrei
(47.1333°N, 11.4500°E)
Time: 18:02:53
(UTC+00:00)

STARLINK-1264 - Pass Details

Date: 07 June 2020
Orbit: 548 x 551 km, 53.0° (Epoch: 10 July)

Event Time Altitude Azimuth Distance (km) Brightness Sun altitude
Exits shadow 23:38:41 40° 130° (SE) 812 4.2 -19.9°
Drops below altitude 10° 23:42:18 10° 71° (ENE) 1,819 6.6 -19.8°
Enters shadow 00:42:44 -62° 244° (WSW) 11,895 10.3 -17.2°
Maximum altitude 01:17:53 55° 340° (NNW) 665 4.2 -14.6°
